Hazlehurst, GA

4:34 AM EDT on October 23, 2019 (GMT -0400)
Hazlehurst

Weather History for KAZE - August, 2019

Change the Weather History Date:

Tuesday, August 20, 2019

  Actual Average Record
Temperature  
Mean Temperature 82 °F -  
Max Temperature 89 °F 96 °F 99 °F (2017)
Min Temperature 75 °F 65 °F 72 °F (2014)
Cooling Degree Days 17    
Growing Degree Days 32 (Base 50)    
Moisture  
Dew Point 72 °F    
Average Humidity 75    
Maximum Humidity 91    
Minimum Humidity 53    
Precipitation  
Precipitation 0.00 in - - ()
Sea Level Pressure  
Sea Level Pressure 30.10 in    
Wind  
Wind Speed 2 mph (SSW)    
Max Wind Speed 7 mph    
Max Gust Speed -    
Visibility 10 miles    
Events Rain , Thunderstorm    
Averages and records for this station are not official NWS values.
T = Trace of Precipitation, MM = Missing Value Source: NWS Daily Summary

Daily Weather History Graph

Daily Weather History Graph

Search for Another Location

Airport or City:

Astronomy

Aug. 20, 2019 Rise Set
Actual Time 6:58 AM EDT 8:09 PM EDT
Civil Twilight 6:32 AM EDT 8:34 PM EDT
Nautical Twilight 6:02 AM EDT 9:04 PM EDT
Astronomical Twilight 5:31 AM EDT 9:35 PM EDT
Moon 11:14 PM EDT (8/20) 11:19 AM EDT (8/20)
Length of Visible Light 14h 01m
Length of Day
13h 10m
Waning Gibbous, 78% of the Moon is Illuminated
Aug 20
Waning Gibbous
Aug 23
Last Quarter
Aug 30
New
Sep 5
First Quarter
Sep 14
Full

Hourly Weather History & Observations

Time (EDT) Temp. Heat Index Dew Point Humidity Pressure Visibility Wind Dir Wind Speed Gust Speed Precip Events Conditions
12:10 AM 77.0 °F - 73.4 °F 89% 30.10 in 10.0 mi South 4.6 mph - N/A Rain Light Rain
12:30 AM 76.5 °F - 72.5 °F 87% 30.10 in 10.0 mi South 6.9 mph - N/A Rain Light Rain
12:50 AM 75.6 °F - 72.0 °F 89% 30.10 in 7.0 mi South 3.5 mph - N/A Rain Rain
1:10 AM 76.1 °F - 72.7 °F 89% 30.10 in 10.0 mi SSE 3.5 mph - N/A Rain Light Rain
1:30 AM 76.5 °F - 73.4 °F 90% 30.10 in 10.0 mi Calm Calm - N/A Rain Light Rain
2:10 AM 76.3 °F - 73.0 °F 90% 30.09 in 10.0 mi Calm Calm - N/A Rain Light Rain
2:30 AM 76.1 °F - 72.9 °F 90% 30.08 in 10.0 mi South 3.5 mph - N/A   Light Drizzle
2:50 AM 76.3 °F - 73.0 °F 90% 30.08 in 10.0 mi South 4.6 mph - N/A   Drizzle
3:30 AM 76.1 °F - 72.9 °F 90% 30.07 in 10.0 mi SSW 4.6 mph - N/A Rain , Thunderstorm Light Thunderstorms and Rain
3:50 AM 76.3 °F - 73.0 °F 90% 30.07 in 10.0 mi SSW 4.6 mph - N/A   Drizzle
4:10 AM 76.3 °F - 73.0 °F 90% 30.07 in 10.0 mi Calm Calm - N/A   Light Drizzle
4:30 AM 76.1 °F - 72.9 °F 90% 30.07 in 10.0 mi Calm Calm - N/A   Scattered Clouds
4:50 AM 76.3 °F - 73.0 °F 90% 30.08 in 10.0 mi Calm Calm - N/A   Scattered Clouds
5:10 AM 76.5 °F - 73.2 °F 90% 30.08 in 10.0 mi Calm Calm - N/A   Overcast
5:30 AM 76.3 °F - 73.0 °F 90% 30.08 in 10.0 mi Calm Calm - N/A   Overcast
5:50 AM 76.1 °F - 73.2 °F 91% 30.08 in 10.0 mi Calm Calm - N/A   Overcast
6:10 AM 76.1 °F - 72.9 °F 90% 30.09 in 7.0 mi Calm Calm - N/A   Overcast
7:10 AM 76.1 °F - 73.0 °F 90% 30.10 in 10.0 mi Calm Calm - N/A   Overcast
7:30 AM 76.3 °F - 73.4 °F 91% 30.11 in 10.0 mi Calm Calm - N/A   Overcast
7:50 AM 76.5 °F - 73.4 °F 90% 30.12 in 10.0 mi Calm Calm - N/A   Overcast
8:10 AM 77.0 °F - 73.6 °F 89% 30.12 in 10.0 mi South 3.5 mph - N/A   Overcast
8:50 AM 77.0 °F - 73.6 °F 89% 30.13 in 10.0 mi Calm Calm - N/A   Overcast
9:10 AM 77.2 °F - 73.6 °F 89% 30.13 in 10.0 mi Calm Calm - N/A   Overcast
9:30 AM 77.7 °F - 73.6 °F 87% 30.14 in 10.0 mi Calm Calm - N/A   Overcast
9:50 AM 78.4 °F - 73.4 °F 84% 30.14 in 10.0 mi Calm Calm - N/A   Overcast
10:30 AM 79.5 °F - 72.9 °F 80% 30.15 in 10.0 mi Calm Calm - N/A   Overcast
10:50 AM 82.2 °F 87.8 °F 73.2 °F 74% 30.14 in 10.0 mi Calm Calm - N/A   Overcast
11:10 AM 82.8 °F 88.2 °F 72.7 °F 71% 30.15 in 10.0 mi Calm Calm - N/A   Overcast
11:30 AM 82.9 °F 88.5 °F 72.9 °F 71% 30.15 in 10.0 mi SW 3.5 mph - N/A   Mostly Cloudy
11:50 AM 84.2 °F 89.6 °F 71.8 °F 66% 30.14 in 10.0 mi Calm Calm - N/A   Scattered Clouds
12:10 PM 85.5 °F 91.8 °F 72.5 °F 65% 30.14 in 10.0 mi Calm Calm - N/A   Scattered Clouds
12:30 PM 84.9 °F 91.4 °F 72.9 °F 67% 30.14 in 10.0 mi SW 3.5 mph - N/A   Mostly Cloudy
1:10 PM 85.5 °F 91.8 °F 72.3 °F 65% 30.13 in 10.0 mi Calm Calm - N/A   Scattered Clouds
1:30 PM 86.2 °F 92.6 °F 72.1 °F 63% 30.13 in 10.0 mi SSW 3.5 mph - N/A   Scattered Clouds
1:50 PM 86.0 °F 91.8 °F 71.8 °F 62% 30.13 in 10.0 mi Calm Calm - N/A   Scattered Clouds
2:10 PM 86.5 °F 92.5 °F 71.4 °F 61% 30.13 in 10.0 mi Calm Calm - N/A   Scattered Clouds
2:30 PM 86.9 °F 92.5 °F 71.2 °F 59% 30.12 in 10.0 mi Calm Calm - N/A   Clear
2:50 PM 86.9 °F 92.5 °F 70.9 °F 59% 30.11 in 10.0 mi Calm Calm - N/A   Scattered Clouds
3:10 PM 87.1 °F 92.4 °F 70.9 °F 58% 30.10 in 10.0 mi Calm Calm - N/A   Clear
3:35 PM 87.4 °F 92.7 °F 70.7 °F 57% 30.09 in 10.0 mi Calm Calm - N/A   Clear
3:50 PM 89.1 °F 94.6 °F 70.3 °F 54% 30.09 in 10.0 mi Calm Calm - N/A   Clear
4:10 PM 89.4 °F 94.8 °F 70.2 °F 53% 30.09 in 7.0 mi Calm Calm - N/A   Scattered Clouds
4:30 PM 88.3 °F 94.1 °F 71.1 °F 56% 30.09 in 10.0 mi Calm Calm - N/A   Scattered Clouds
5:30 PM 88.5 °F 94.0 °F 70.7 °F 55% 30.08 in 10.0 mi SSW 3.5 mph - N/A   Clear
5:50 PM 87.8 °F 93.0 °F 70.3 °F 56% 30.08 in 10.0 mi Calm Calm - N/A   Clear
6:10 PM 87.4 °F 94.0 °F 71.8 °F 60% 30.08 in 10.0 mi Calm Calm - N/A   Clear
6:30 PM 87.4 °F 93.5 °F 71.4 °F 59% 30.07 in 10.0 mi Calm Calm - N/A   Clear
6:50 PM 87.8 °F 93.8 °F 71.2 °F 58% 30.07 in 10.0 mi Calm Calm - N/A   Clear
7:10 PM 87.3 °F 93.2 °F 71.4 °F 59% 30.06 in 10.0 mi Calm Calm - N/A   Clear
7:30 PM 86.4 °F 93.0 °F 72.3 °F 63% 30.07 in 10.0 mi Calm Calm - N/A   Clear
8:10 PM 84.4 °F 91.0 °F 73.0 °F 69% 30.08 in 10.0 mi Calm Calm - N/A   Clear
8:30 PM 83.3 °F 90.2 °F 74.3 °F 74% 30.09 in 10.0 mi Calm Calm - N/A   Clear
8:50 PM 83.8 °F 90.4 °F 73.4 °F 71% 30.09 in 10.0 mi Calm Calm - N/A   Scattered Clouds
9:10 PM 83.5 °F 89.4 °F 72.7 °F 70% 30.09 in 10.0 mi Calm Calm - N/A   Scattered Clouds
9:30 PM 82.8 °F 88.2 °F 72.5 °F 71% 30.10 in 10.0 mi Calm Calm - N/A   Scattered Clouds
9:50 PM 82.2 °F 87.1 °F 72.1 °F 71% 30.10 in 10.0 mi Calm Calm - N/A   Scattered Clouds
10:10 PM 81.7 °F 86.3 °F 71.8 °F 72% 30.10 in 10.0 mi Calm Calm - N/A   Clear
10:30 PM 81.5 °F 85.9 °F 71.6 °F 72% 30.10 in 10.0 mi Calm Calm - N/A   Clear
10:50 PM 81.1 °F 85.4 °F 71.6 °F 73% 30.11 in 10.0 mi Calm Calm - N/A   Clear
11:10 PM 80.8 °F 84.9 °F 71.8 °F 74% 30.12 in 10.0 mi Calm Calm - N/A   Clear
11:35 PM 80.4 °F 84.4 °F 71.8 °F 75% 30.12 in 10.0 mi Calm Calm - N/A   Clear
11:50 PM 80.1 °F 83.8 °F 71.8 °F 76% 30.12 in 10.0 mi Calm Calm - N/A   Clear